Regional Weather Roundup
Issued by NWS Grand Forks, ND

Home | Current Version | Previous Version | Text Only | Print | Product List | Glossary Off
Versions: 1 2 3 4 5 6 7 8 9 10 11 12 13 14 15 16 17 18 19 20 21 22 23 24 25 26 27 28 29 30 31 32 33 34 35 36 37 38 39 40 41 42 43 44 45 46 47 48 49 50

000
ASUS43 KFGF 191331
RWRFGF
PRAIRIE TO PINES  WEATHER ROUNDUP
NATIONAL WEATHER SERVICE EASTERN NORTH DAKOTA/GRAND FORKS ND
700 AM CST FRI DEC 19 2014

 **SATELLITE DATA USED TO AUGMENT SKY COVER AT AUTOMATED STATIONS**
 *****  WEATHER ACROSS EASTERN NORTH DAKOTA  *****

CITY           SKY/WX    TMP DP  RH WIND       PRES   REMARKS
GRAND FORKS    CLOUDY    22  21  96 S10       30.07S FOG     WCI  11
GRAND FRKS AFB CLOUDY    22  22 100 S10       30.06F FOG     WCI  12
DEVILS LAKE    CLOUDY    27  19  74 S7        29.96S WCI  19
FARGO          CLOUDY    25  22  88 S14       30.09F FOG     WCI  13
WAHPETON ARPT  CLOUDY    25  23  93 S8        30.12S WCI  16
$$

 ***** WEATHER ACROSS CENTRAL AND WESTERN NORTH DAKOTA  *****

CITY           SKY/WX    TMP DP  RH WIND       PRES   REMARKS
BISMARCK       CLOUDY    22  21  96 SE5       29.96S WCI  16
MINOT          FOG       28  26  92 CALM      29.92S VSB 1
JAMESTOWN      CLOUDY    26  24  92 S10       29.99F FOG     WCI  16
MINOT AFB      FRZ DRZL  26  26 100 CALM      29.93R FOG
GARRISON         N/A     21  20  96 E3        29.92S
WILLISTON      FOG       23  20  88 SW3       29.92S VSB 1/2
DICKINSON      CLOUDY    30  23  75 W6        29.89S WCI  24
HETTINGER      MOCLDY    26  22  84 NW6       29.94R WCI  19
$$

 *****  OTHER AIRPORT OBSERVATIONS IN OUR AREA  *****

CITY           SKY/WX    TMP DP  RH WIND       PRES   REMARKS
WALHALLA         N/A     21  21 100 SE6       30.04S FOG     WCI  14
GRAFTON AIRPOR NOT AVBL
VALLEY CITY AR CLOUDY    27  27 100 S13       30.02S FOG     WCI  16
CANDO          CLOUDY    25  25 100 S6        29.97S FOG     WCI  18
CAVALIER APRT  CLOUDY    23  21  93 S8        30.05F FOG     WCI  14
GWINNER        CLOUDY    30  30 100 MISG      30.06F
SHEYENNE NWR     N/A     26  24  94 S7        29.95  WCI  18
ROLLA          CLOUDY    23  23 100 S3        29.95S FOG
 ***** THE ABOVE OBSERVATIONS ARE NON NWS ARE NOT QUALITY
       CONTROLLED AND MAY MIS-REPORT RAIN FOR SNOW...
$$

  *****  WEATHER ACROSS NORTHERN MINNESOTA  *****

CITY           SKY/WX    TMP DP  RH WIND       PRES   REMARKS
FLAG ISLAND    CLOUDY    19  18  93 S14       30.12S WCI   6
WARROAD        CLOUDY    21  18  86 S8        30.11F WCI  12
ROSEAU         CLOUDY    21  18  86 S10       30.10F WCI  10
HALLOCK        CLOUDY    23  21  93 S12       30.07F FOG     WCI  12
THF RVR FALLS  CLOUDY    21  19  93 SE9       30.09F WCI  11
BAUDETTE       CLOUDY    21  16  81 SE6       30.13S WCI  13
WASKISH        FLURRIES  19  18  93 CALM      30.14S
CROOKSTON      CLOUDY    23  21  93 S13       30.10S FOG     WCI  11
STEPHEN NDAWN    N/A     21  21 100 S12         N/A  WCI   9
GREENBUSH NDAW   N/A     21  19  93 SE10        N/A  WCI  10
$$
  *****  WEATHER ACROSS CENTRAL AND WEST MINNESOTA  *****

CITY           SKY/WX    TMP DP  RH WIND       PRES   REMARKS
FOSSTON        CLOUDY    19  18  93 SE7       30.10S WCI  10
BEMIDJI        FLURRIES  19  16  88 SE7       30.12S WCI   9
PARK RAPIDS    CLOUDY    20  16  84 SE12      30.12S WCI   8
ELBOW LAKE     CLOUDY    23  23  99 SE13      30.13R FOG     WCI  11
WADENA         CLOUDY    19  18  93 NW10      30.13S FOG     WCI   8
DETROIT LAKES  CLOUDY    23  21  93 SE9       30.11S FOG     WCI  13
MOORHEAD       CLOUDY    25  25 100 S14       30.10F FOG     WCI  13
FERGUS FALLS   CLOUDY    23  23 100 S10       30.15F FOG     WCI  12
MORRIS MN      MOCLDY    25  23  93 SE12      30.13S FOG     WCI  14
STAPLES        CLOUDY    18  18 100 S7        30.15S FOG     WCI   8
$$
  *****  WEATHER ELSEWHERE ACROSS MINNESOTA  *****

CITY           SKY/WX    TMP DP  RH WIND       PRES   REMARKS
DULUTH         CLOUDY    21  18  88 S5        30.20R WCI  15
INTRNTL FALLS  CLOUDY    21  17  84 SE3       30.16F
ELY            CLOUDY    21  18  86 S3        30.19S
CLOQUET        CLOUDY    19  19 100 CALM      30.20S
WHEATON        CLOUDY    23  21  93 SE12      30.14S FOG     WCI  12
BRAINERD       CLOUDY    20  16  84 SE6       30.18S FOG     WCI  12
HIBBING        LGT SNOW  20  16  84 S5        30.19S FOG     WCI  13
ALEXANDRIA     CLOUDY    22  21  96 SE9       30.14S FOG     WCI  12
SAINT CLOUD    CLOUDY    22  17  81 SE8       30.21S WCI  12
MINNEAPOLIS    FLURRIES  22  17  81 SE6       30.25S WCI  14
$$

  *****  WEATHER ACROSS SOUTH DAKOTA  *****

CITY           SKY/WX    TMP DP  RH WIND       PRES   REMARKS
SIOUX FALLS    CLOUDY    29  25  85 S12       30.14F WCI  19
BROOKINGS      NOT AVBL
WATERTOWN      CLOUDY    26  24  92 S15       30.07S FOG     WCI  14
HURON          CLOUDY    28  25  88 S10       30.09S WCI  19
SISSETON         N/A     26  25  96 S8        30.10S WCI  18
ABERDEEN       CLOUDY    27  25  92 S13       30.06F WCI  16
MITCHELL       CLOUDY    29  26  89 S14       30.11S FOG     WCI  18
PIERRE         FOG       13  10  88 CALM      30.01F VSB 1/4
MOBRIDGE       MOCLDY    20  18  92 SE9       29.96F WCI   9
RAPID CITY     PTCLDY    26  16  65 W3        29.98R
$$

  *****  SOME WEATHER IN NEARBY STATES *****

CITY           SKY/WX    TMP DP  RH WIND       PRES   REMARKS
GLASGOW MT     CLOUDY    21  18  88 N3        29.90F
GREAT FALLS MT MOCLDY    33  25  72 S12       29.86F WCI  24
CHEYENNE WY    CLEAR     21  11  65 SE8       30.04R WCI  11
SCOTTSBLUFF NE PTCLDY     4   3  96 NW6       30.06S WCI  -7
OMAHA NE       CLOUDY    31  28  89 S6        30.23S FOG
DES MOINES IA  LGT SNOW  29  25  85 SE5       30.27R FOG     WCI  24
DAVENPORT IA   PTCLDY    15  11  83 CALM      30.31R
CHICAGO IL     CLOUDY    28  22  78 N8        30.29R WCI  20
EAU CLAIRE WI  CLOUDY    23  18  81 S6        30.27S WCI  16
LA CROSSE WI   CLOUDY    24  17  74 CALM      30.30R
$$

  *****  SOME NATIONAL WEATHER *****

CITY           SKY/WX    TMP DP  RH WIND       PRES   REMARKS
LA GUARDIA NY  CLOUDY    37  24  59 NW16      30.02R
RALEIGH NC     PTCLDY    38  24  57 CALM      30.16R
ATLANTA GA     CLOUDY    38  32  79 NW6       30.15R
NEW ORLEANS LA CLOUDY    57  51  80 NE8       30.12R
OKLAHOMA CITY  DRZL/FOG  39  37  92 NE7       30.21S VSB 1/2
ALBUQUERQUE NM CLEAR     32  26  78 N6        30.18R
SALT LAKE CITY PTCLDY    33  28  81 S10       30.18F WCI  25
LOS ANGELES CA MOCLDY    53  46  77 VRB3      30.21R
BOISE ID       LGT RAIN  44  33  65 SE10      30.05R
SEATTLE WA     CLOUDY    47  43  86 S7        29.83S
$$

*** WEATHER ACROSS MANITOBA...SASKATCHEWAN AND ONTARIO ***
                ***ONTARIO***

CITY           SKY/WX    TMP DP  RH WIND       PRES   REMARKS
GERALDTON      CLEAR    -17 -20  83 CALM      30.28R
THUNDER BAY    MOCLDY     0  -4  85 W5        30.33R WCI -10
SIOUX LOOKOUT  FRZ DRZL  18  14  86 S5        30.18  WCI  11
TORONTO        MOCLDY    23  18  80 NW14      30.18R WCI  11
BIG TROUT LK   FLURRIES  -2  -6  84 SW5       30.17S WCI -12
PICKLE LAKE    CLOUDY    12   9  85 S6        30.19  WCI   3
DRYDEN         CLOUDY    19  18  93 S3        30.15S
KENORA         CLOUDY    18  16  93 S8        30.12S WCI   7
$$
                *** MANITOBA***

CITY           SKY/WX    TMP DP  RH WIND       PRES   REMARKS
BRANDON        CLOUDY    21  19  93 SE3       29.98S FOG
DAUPHIN        CLOUDY    19  18  93 S3        30.00R
ISLAND LAKE    FLURRIES   3   0  85 S5        30.10  WCI  -6
PILOT MOUND      N/A     23  21  93 S1          N/A
THE PAS        CLOUDY    16  16 100 SE9       29.98R WCI   4
THOMPSON       LGT SNOW   7   5  92 VRB2      29.99
WINNIPEG       FRZ DRZL  21  19  93 S13       30.07  FOG     WCI   9
LYNN LAKE      CLOUDY    16  14  93 SW6       29.89S WCI   7
CHURCHILL      CLOUDY    10   9  92 W7        29.95  WCI   0
GILLAM         LGT SNOW   5   1  85 SW6       30.02  WCI  -6
$$
                ***SASKATCHEWAN***

CITY           SKY/WX    TMP DP  RH WIND       PRES   REMARKS
ESTEVAN        FOG       23  21  93 S6        29.91  VSB 0   WCI  16
KINDERSLEY     CRYSTALS   3   0  85 S2        29.87
LLOYDMINSTER   CLOUDY     7   5  92 S3        29.85S FOG
PRINCE ALBERT  CLOUDY    16  16 100 VRB2      29.93S
REGINA         FOG       19  19 100 NW7       29.91  VSB 3/8 WCI  10
YORKTON        CLOUDY    21  19  93 S5        29.92S FOG     WCI  15
N. BATTLEFORD  FOG       14  12  92 S3        29.92F VSB 5/8
LA RONGE       CLOUDY    16  14  93 W3        29.92
SASKATOON      FOG       16  14  93 W5        29.95R VSB 1/2 WCI   9
SWIFT CURRENT  CLEAR     16  16 100 SW8       29.85S WCI   5
$$
NOTE: THESE ARE AUTOMATED STATIONS WITH LIMITED QUALITY CONTROL
      "FAIR" INDICATES FEW OR NO CLOUDS BELOW 12,000 FEET WITH NO
      SIGNIFICANT WEATHER AND/OR OBSTRUCTIONS TO VISIBILITY.
      SKY/WX - SKY CONDITION AND SIGNIFICANT WEATHER.
      TMP - AIR TEMPERATURE.    DP   - DEWPOINT TEMPERATURE.
      RH  - RELATIVE HUMIDITY.  PRES - PRESSURE.
      HX  - HEAT INDEX.         WCI  - WIND CHILL INDEX.
$



USA.gov is the U.S. government's official web portal to all federal, state and local government web resources and services.